CZ-8 R/B (47301 NORAD) Tracking and Keplerian Element Data
This shows tracking and keplerian element data for the satellite.
Feedback or suggestion? Click here.
Element | Value |
Catalog | 47301 |
Name | CZ-8 R/B |
Epoch Orbit | 452 |
Epoch Day | 20.67130592 |
Epoch Year | 2021 |
RAAN | 121.3905 |
Inclination | 97.4391 |
Eccentricity | 0.0104996 |
Argument of Perigee | 55.3566 |
Mean Anonmoly | 305.7522 |
Mean Motion | 15.36569588 |
Decay Rate | 2.706E-05 |
L1 | 1 47301U 20102F 21020.67130592 .00002706 00000-0 65267-4 0 9993 |
L2 | 2 47301 97.4391 121.3905 0104996 55.3566 305.7522 15.36569588 4521 |
Live tracking and technical data element details for CZ-8 R/B (NORAD 47301). CZ-8 R/B can be tracked NOW for your location showing map with azimuth and elevation plus other details from your city location.
Track the satellite on the map from your city or location and see movement details for azimuth, elevation, latitude, longitude, range, height, and movement on the map or in text.
IsCatalogInMostPopularTable: catalog: 47301, numindb: 11
Update: records affected: 1
GetName: 47301 CZ-8 R/B
Hit Count: updated at: Sat, 23 Jan 2021 18:50:14 GMT